Location: *
(45.9500°N, 9.0833°E)
Time: 19:38:33
(UTC+00:00)

Tiros 1 despin weight - Pass Details

Date: 25 June 2021
Orbit: 593 x 642 km, 48.2° (Epoch: 05 August)

Event Time Altitude Azimuth Distance (km) Brightness Sun altitude
Rises 07:01:47 0° 285° (WNW) 2,829 ? 32.9°
Reaches altitude 10° 07:04:04 10° 286° (WNW) 1,925 ? 33.3°
Maximum altitude 07:08:29 81° 14° (NNE) 605 ? 34.1°
Drops below altitude 10° 07:12:54 10° 102° (ESE) 1,926 ? 34.8°
Sets 07:15:12 0° 104° (ESE) 2,831 ? 35.2°
